GW1975 Weather Reports


Display with metric or nautical units.
time (UTC)temp
F
wind
direction
speed
MPH
gust
MPH
rain 1hr
in
rain 24hr
in
rain mn
in
humidity
%
barometer
mb
20260904200736 97 197 2.0 3.0 0.00 0.00 0.00 39 1015.0
20260904200235 98 156 3.0 5.0 0.00 0.00 0.00 38 1015.0
20260904195736 98 232 4.0 5.0 0.00 0.00 0.00 39 1015.0
20260904195235 99 243 2.0 8.0 0.00 0.00 0.00 38 1015.0
20260904194736 99 246 5.0 5.0 0.00 0.00 0.00 39 1015.0
20260904194235 98 264 3.0 4.0 0.00 0.00 0.00 39 1015.0
20260904193736 98 247 2.0 4.0 0.00 0.00 0.00 40 1015.0
20260904193238 98 239 3.0 5.0 0.00 0.00 0.00 40 1015.0
20260904192737 97 241 2.0 2.0 0.00 0.00 0.00 40 1015.0
20260904192236 97 249 3.0 5.0 0.00 0.00 0.00 40 1015.0
20260904191736 97 234 2.0 4.0 0.00 0.00 0.00 41 1015.0
20260904191236 98 227 3.0 9.0 0.00 0.00 0.00 40 1015.0
20260904190735 97 238 4.0 4.0 0.00 0.00 0.00 42 1015.0
20260904190235 97 234 2.0 5.0 0.00 0.00 0.00 41 1015.0
20260904185736 98 264 5.0 5.0 0.00 0.00 0.00 41 1015.0
20260904185237 97 256 1.0 5.0 0.00 0.00 0.00 42 1016.0
20260904184815 97 253 2.0 4.0 0.00 0.00 0.00 43 1015.0
20260904184235 97 233 2.0 7.0 0.00 0.00 0.00 40 1016.0
20260904183735 97 254 5.0 7.0 0.00 0.00 0.00 41 1016.0
20260904183235 97 238 3.0 4.0 0.00 0.00 0.00 43 1016.0
20260904182736 97 269 5.0 7.0 0.00 0.00 0.00 43 1016.0
20260904182235 96 246 2.0 3.0 0.00 0.00 0.00 44 1016.0
20260904181735 96 253 4.0 10.0 0.00 0.00 0.00 43 1016.0
20260904181237 96 275 4.0 6.0 0.00 0.00 0.00 44 1016.0
20260904180737 96 241 3.0 8.0 0.00 0.00 0.00 44 1016.0
20260904180235 95 244 3.0 6.0 0.00 0.00 0.00 44 1016.0
20260904175735 96 249 4.0 7.0 0.00 0.00 0.00 44 1016.0
20260904175235 95 260 6.0 6.0 0.00 0.00 0.00 45 1016.0
20260904174735 95 231 5.0 5.0 0.00 0.00 0.00 44 1016.0
20260904174235 95 250 2.0 6.0 0.00 0.00 0.00 45 1016.0
20260904173736 95 264 5.0 7.0 0.00 0.00 0.00 45 1016.0
20260904173235 95 275 5.0 7.0 0.00 0.00 0.00 45 1016.0
20260904172735 95 235 3.0 6.0 0.00 0.00 0.00 46 1016.0
20260904172236 95 276 5.0 6.0 0.00 0.00 0.00 47 1016.0
20260904171735 95 262 3.0 7.0 0.00 0.00 0.00 46 1016.0
20260904171236 94 243 4.0 6.0 0.00 0.00 0.00 47 1016.0
20260904170736 94 263 4.0 7.0 0.00 0.00 0.00 47 1016.0
20260904170243 94 237 3.0 5.0 0.00 0.00 0.00 48 1016.0
20260904165735 94 274 3.0 5.0 0.00 0.00 0.00 48 1017.0
20260904165235 94 235 3.0 7.0 0.00 0.00 0.00 48 1017.0
20260904164736 93 246 5.0 7.0 0.00 0.00 0.00 48 1017.0
20260904164236 93 250 3.0 7.0 0.00 0.00 0.00 49 1016.0
20260904163735 93 271 4.0 6.0 0.00 0.00 0.00 50 1017.0
20260904163236 92 243 2.0 4.0 0.00 0.00 0.00 52 1017.0
20260904162735 92 255 3.0 4.0 0.00 0.00 0.00 52 1017.0
20260904162236 92 253 3.0 5.0 0.00 0.00 0.00 52 1017.0
20260904161736 91 255 3.0 5.0 0.00 0.00 0.00 54 1017.0
20260904161237 91 261 4.0 7.0 0.00 0.00 0.00 54 1017.0
20260904160735 91 236 3.0 6.0 0.00 0.00 0.00 54 1017.0
20260904160237 91 247 2.0 5.0 0.00 0.00 0.00 55 1017.0
20260904155737 90 240 4.0 6.0 0.00 0.00 0.00 54 1017.0
20260904155235 90 287 4.0 4.0 0.00 0.00 0.00 55 1017.0
20260904154735 90 241 2.0 6.0 0.00 0.00 0.00 55 1017.0
20260904154237 90 268 3.0 7.0 0.00 0.00 0.00 55 1017.0
20260904153736 90 264 6.0 6.0 0.00 0.00 0.00 55 1017.0
20260904153238 90 284 4.0 6.0 0.00 0.00 0.00 55 1017.0
20260904152735 90 319 5.0 6.0 0.00 0.00 0.00 55 1017.0
20260904152236 89 264 3.0 5.0 0.00 0.00 0.00 56 1017.0
20260904151735 89 273 4.0 5.0 0.00 0.00 0.00 56 1017.0
20260904151236 89 253 4.0 11.0 0.00 0.00 0.00 55 1017.0
20260904150736 89 262 4.0 8.0 0.00 0.00 0.00 56 1017.0
20260904150235 88 269 3.0 6.0 0.00 0.00 0.00 57 1016.0
20260904145735 88 260 4.0 7.0 0.00 0.00 0.00 58 1016.0
20260904145236 88 252 5.0 8.0 0.00 0.00 0.00 58 1017.0
20260904144736 88 276 5.0 5.0 0.00 0.00 0.00 58 1016.0
20260904144235 88 266 3.0 6.0 0.00 0.00 0.00 58 1017.0
20260904143736 88 266 3.0 6.0 0.00 0.00 0.00 58 1016.0
20260904143236 88 253 4.0 8.0 0.00 0.00 0.00 58 1016.0
20260904142736 87 300 3.0 6.0 0.00 0.00 0.00 59 1017.0
20260904142237 87 267 3.0 6.0 0.00 0.00 0.00 60 1016.0
20260904141735 87 277 4.0 7.0 0.00 0.00 0.00 59 1016.0
20260904141236 87 267 5.0 5.0 0.00 0.00 0.00 60 1016.0
20260904140737 87 262 4.0 6.0 0.00 0.00 0.00 60 1016.0
20260904140235 86 267 3.0 4.0 0.00 0.00 0.00 61 1016.0
20260904135737 86 252 3.0 3.0 0.00 0.00 0.00 62 1016.0
20260904135236 85 236 3.0 3.0 0.00 0.00 0.00 63 1016.0
20260904134736 85 260 3.0 4.0 0.00 0.00 0.00 63 1017.0
20260904134236 84 265 3.0 4.0 0.00 0.00 0.00 64 1016.0
20260904133736 84 260 2.0 4.0 0.00 0.00 0.00 64 1017.0
20260904133235 84 248 3.0 4.0 0.00 0.00 0.00 65 1016.0
20260904132736 84 245 2.0 4.0 0.00 0.00 0.00 65 1016.0
20260904132235 83 261 1.0 3.0 0.00 0.00 0.00 66 1016.0
20260904131736 83 260 1.0 3.0 0.00 0.00 0.00 67 1017.0
20260904131237 83 266 3.0 3.0 0.00 0.00 0.00 67 1017.0
20260904130736 82 249 3.0 4.0 0.00 0.00 0.00 67 1017.0
20260904130235 82 246 2.0 4.0 0.00 0.00 0.00 68 1017.0
20260904125735 82 243 2.0 5.0 0.00 0.00 0.00 68 1016.0
20260904125235 81 255 2.0 3.0 0.00 0.00 0.00 69 1017.0
20260904124736 81 242 3.0 3.0 0.00 0.00 0.00 70 1016.0
20260904124236 80 266 2.0 4.0 0.00 0.00 0.00 71 1016.0
20260904123735 80 244 4.0 4.0 0.00 0.00 0.00 72 1016.0
20260904123235 80 239 2.0 3.0 0.00 0.00 0.00 73 1016.0
20260904122735 79 253 2.0 3.0 0.00 0.00 0.00 74 1016.0
20260904122235 79 254 2.0 2.0 0.00 0.00 0.00 75 1016.0
20260904121735 78 247 1.0 2.0 0.00 0.00 0.00 76 1016.0
20260904121236 78 247 2.0 2.0 0.00 0.00 0.00 76 1016.0
20260904120736 78 269 0.0 1.0 0.00 0.00 0.00 76 1016.0
20260904120236 78 256 1.0 2.0 0.00 0.00 0.00 76 1016.0
20260904115736 78 252 0.0 2.0 0.00 0.00 0.00 76 1016.0
20260904115235 78 253 1.0 2.0 0.00 0.00 0.00 76 1016.0
20260904114736 78 262 2.0 2.0 0.00 0.00 0.00 75 1016.0
20260904114236 79 250 0.0 1.0 0.00 0.00 0.00 75 1016.0
20260904113737 79 269 0.0 2.0 0.00 0.00 0.00 75 1016.0
20260904113235 79 260 1.0 2.0 0.00 0.00 0.00 74 1016.0
20260904112735 79 246 1.0 2.0 0.00 0.00 0.00 73 1016.0
20260904112235 79 247 1.0 2.0 0.00 0.00 0.00 73 1016.0
20260904111735 80 235 2.0 3.0 0.00 0.00 0.00 72 1016.0
20260904111235 80 235 1.0 2.0 0.00 0.00 0.00 73 1016.0
20260904110735 80 234 1.0 2.0 0.00 0.00 0.00 72 1015.0
20260904110236 79 241 3.0 3.0 0.00 0.00 0.00 72 1015.0
20260904105735 79 238 2.0 2.0 0.00 0.00 0.00 73 1015.0
20260904105236 79 242 3.0 3.0 0.00 0.00 0.00 73 1015.0
20260904104735 78 235 2.0 2.0 0.00 0.00 0.00 75 1015.0
20260904104236 78 259 1.0 2.0 0.00 0.00 0.00 75 1015.0
20260904103735 79 250 1.0 2.0 0.00 0.00 0.00 76 1016.0
20260904103237 79 238 0.0 1.0 0.00 0.00 0.00 76 1015.0
20260904102735 79 250 0.0 2.0 0.00 0.00 0.00 76 1015.0
20260904102235 79 235 1.0 2.0 0.00 0.00 0.00 75 1015.0
20260904101737 79 238 1.0 2.0 0.00 0.00 0.00 75 1015.0
20260904101235 79 263 0.0 2.0 0.00 0.00 0.00 75 1015.0
20260904100735 79 254 1.0 1.0 0.00 0.00 0.00 74 1015.0
20260904100235 80 231 1.0 2.0 0.00 0.00 0.00 74 1015.0
20260904095736 80 202 1.0 2.0 0.00 0.00 0.00 73 1015.0
20260904095236 80 237 1.0 2.0 0.00 0.00 0.00 73 1015.0
20260904094736 79 226 1.0 2.0 0.00 0.00 0.00 73 1015.0
20260904094235 80 246 1.0 2.0 0.00 0.00 0.00 72 1015.0
20260904093736 80 247 1.0 2.0 0.00 0.00 0.00 72 1015.0
20260904093235 80 259 1.0 2.0 0.00 0.00 0.00 72 1015.0
20260904092735 80 217 0.0 2.0 0.00 0.00 0.00 72 1015.0
20260904092235 80 228 2.0 2.0 0.00 0.00 0.00 72 1015.0
20260904091735 80 257 1.0 2.0 0.00 0.00 0.00 72 1015.0
20260904091235 80 235 1.0 2.0 0.00 0.00 0.00 72 1015.0
20260904090736 80 252 0.0 2.0 0.00 0.00 0.00 72 1015.0
20260904090236 80 264 1.0 2.0 0.00 0.00 0.00 72 1015.0
20260904085735 80 248 1.0 2.0 0.00 0.00 0.00 72 1015.0
20260904085236 80 242 1.0 2.0 0.00 0.00 0.00 72 1015.0
20260904084735 80 230 0.0 2.0 0.00 0.00 0.00 72 1015.0
20260904084235 80 253 1.0 2.0 0.00 0.00 0.00 72 1015.0
20260904083736 80 214 0.0 2.0 0.00 0.00 0.00 72 1015.0
20260904083235 80 235 1.0 2.0 0.00 0.00 0.00 71 1015.0
20260904082735 80 215 2.0 2.0 0.00 0.00 0.00 71 1015.0
20260904082235 81 231 0.0 2.0 0.00 0.00 0.00 71 1015.0
20260904081735 81 217 2.0 2.0 0.00 0.00 0.00 71 1015.0
20260904081235 81 215 1.0 2.0 0.00 0.00 0.00 71 1015.0
20260904080736 81 265 1.0 2.0 0.00 0.00 0.00 70 1015.0
20260904080236 81 238 1.0 2.0 0.00 0.00 0.00 70 1015.0
20260904075735 81 222 2.0 2.0 0.00 0.00 0.00 70 1015.0
20260904075235 81 228 1.0 2.0 0.00 0.00 0.00 70 1015.0
20260904074735 81 210 2.0 2.0 0.00 0.00 0.00 70 1015.0
20260904074235 81 223 2.0 2.0 0.00 0.00 0.00 70 1015.0
20260904073735 81 239 2.0 2.0 0.00 0.00 0.00 70 1015.0
20260904073236 81 251 1.0 2.0 0.00 0.00 0.00 70 1015.0
20260904072735 82 278 1.0 2.0 0.00 0.00 0.00 70 1015.0
20260904072235 82 254 1.0 2.0 0.00 0.00 0.00 70 1015.0
20260904071737 82 240 1.0 2.0 0.00 0.00 0.00 69 1015.0
20260904071235 82 239 1.0 2.0 0.00 0.00 0.00 69 1015.0
20260904070735 82 236 1.0 2.0 0.00 0.00 0.00 69 1015.0
20260904070235 82 227 1.0 2.0 0.00 0.00 0.00 69 1015.0
20260904065735 82 244 1.0 2.0 0.00 0.00 0.00 68 1015.0
20260904065235 82 220 2.0 2.0 0.00 0.00 0.00 69 1015.0
20260904064735 82 235 1.0 2.0 0.00 0.00 0.00 69 1015.0
20260904064235 82 225 2.0 2.0 0.00 0.00 0.00 69 1015.0
20260904063735 82 239 2.0 2.0 0.00 0.00 0.00 69 1015.0
20260904063235 82 242 1.0 2.0 0.00 0.00 0.00 69 1015.0
20260904062737 82 231 1.0 2.0 0.00 0.00 0.00 69 1015.0
20260904062235 82 212 1.0 2.0 0.00 0.00 0.00 69 1015.0
20260904061740 82 224 1.0 2.0 0.00 0.00 0.00 69 1015.0
20260904061235 82 242 1.0 2.0 0.00 0.00 0.00 69 1015.0
20260904060735 82 249 2.0 2.0 0.00 0.00 0.00 69 1015.0
20260904060235 82 251 1.0 2.0 0.00 0.00 0.00 70 1015.0
20260904055738 82 223 1.0 2.0 0.00 0.00 0.00 70 1015.0
20260904055235 82 248 1.0 2.0 0.00 0.00 0.00 70 1015.0
20260904054735 82 250 1.0 2.0 0.00 0.00 0.00 70 1015.0
20260904054237 82 251 1.0 1.0 0.00 0.00 0.00 70 1015.0
20260904053735 82 242 1.0 2.0 0.00 0.00 0.00 70 1015.0
20260904053235 82 241 1.0 1.0 0.00 0.00 0.00 70 1015.0
20260904052735 82 258 1.0 2.0 0.00 0.00 0.00 69 1014.0
20260904052235 83 255 1.0 2.0 0.00 0.00 0.00 69 1015.0
20260904051735 83 247 0.0 1.0 0.00 0.00 0.00 69 1015.0
20260904051235 83 261 1.0 2.0 0.00 0.00 0.00 69 1015.0
20260904050737 83 254 2.0 2.0 0.00 0.00 0.00 69 1015.0
20260904050235 83 263 2.0 2.0 0.00 0.00 0.00 69 1015.0
20260904045735 83 253 1.0 2.0 0.00 0.00 0.00 68 1015.0
20260904045239 83 252 1.0 1.0 0.00 0.00 0.00 68 1015.0
20260904044735 84 258 1.0 2.0 0.00 0.00 0.00 68 1015.0
20260904044235 84 247 1.0 2.0 0.00 0.00 0.00 68 1015.0
20260904043737 84 234 2.0 2.0 0.00 0.00 0.00 67 1015.0
20260904043236 84 261 0.0 1.0 0.00 0.00 0.00 67 1015.0
20260904042737 84 262 1.0 2.0 0.00 0.00 0.00 67 1015.0
20260904042235 84 252 1.0 2.0 0.00 0.00 0.00 67 1015.0
20260904041735 84 255 2.0 2.0 0.00 0.00 0.00 66 1015.0
20260904041235 84 252 1.0 2.0 0.00 0.00 0.00 66 1015.0
20260904040735 84 253 2.0 2.0 0.00 0.00 0.00 65 1015.0
20260904040235 85 269 1.0 2.0 0.00 0.00 0.00 65 1015.0
20260904035735 85 255 2.0 2.0 0.00 0.00 0.00 65 1015.0
20260904035237 85 261 1.0 2.0 0.00 0.00 0.00 65 1015.0
20260904034735 85 269 0.0 2.0 0.00 0.00 0.00 65 1015.0
20260904034235 85 274 1.0 2.0 0.00 0.00 0.00 64 1015.0
20260904033736 85 275 1.0 2.0 0.00 0.00 0.00 64 1015.0
20260904033236 86 266 1.0 2.0 0.00 0.00 0.00 64 1015.0
20260904032735 86 249 2.0 2.0 0.00 0.00 0.00 63 1015.0
20260904032235 86 267 1.0 2.0 0.00 0.00 0.00 63 1014.0
20260904031736 86 267 2.0 2.0 0.00 0.00 0.00 63 1015.0
20260904031235 86 243 2.0 2.0 0.00 0.00 0.00 63 1014.0
20260904030735 86 267 2.0 3.0 0.00 0.00 0.00 62 1015.0
20260904030235 86 269 2.0 2.0 0.00 0.00 0.00 62 1015.0
20260904025736 86 269 0.0 2.0 0.00 0.00 0.00 62 1015.0
20260904025235 86 264 1.0 2.0 0.00 0.00 0.00 61 1015.0
20260904024735 87 264 1.0 2.0 0.00 0.00 0.00 61 1015.0
20260904024238 87 260 2.0 2.0 0.00 0.00 0.00 61 1014.0
20260904023737 87 249 2.0 3.0 0.00 0.00 0.00 60 1014.0
20260904023237 87 250 1.0 2.0 0.00 0.00 0.00 60 1015.0
20260904022735 87 254 2.0 2.0 0.00 0.00 0.00 59 1015.0
20260904022235 87 255 2.0 2.0 0.00 0.00 0.00 59 1014.0
20260904021735 87 230 0.0 2.0 0.00 0.00 0.00 59 1014.0
20260904021236 87 237 2.0 2.0 0.00 0.00 0.00 58 1014.0
20260904020735 87 260 2.0 2.0 0.00 0.00 0.00 58 1014.0
20260904020237 87 262 1.0 2.0 0.00 0.00 0.00 57 1014.0
20260904015735 87 241 2.0 2.0 0.00 0.00 0.00 57 1014.0
20260904015238 88 264 2.0 2.0 0.00 0.00 0.00 57 1014.0
20260904014735 88 255 1.0 2.0 0.00 0.00 0.00 56 1014.0
20260904014235 88 244 2.0 2.0 0.00 0.00 0.00 56 1014.0
20260904013735 88 261 2.0 2.0 0.00 0.00 0.00 56 1014.0
20260904013235 89 254 2.0 2.0 0.00 0.00 0.00 55 1014.0
20260904012735 89 251 1.0 2.0 0.00 0.00 0.00 55 1014.0
20260904012235 89 251 2.0 2.0 0.00 0.00 0.00 54 1014.0
20260904011736 90 261 2.0 2.0 0.00 0.00 0.00 54 1014.0
20260904011235 90 246 2.0 2.0 0.00 0.00 0.00 53 1014.0
20260904010735 90 257 1.0 2.0 0.00 0.00 0.00 52 1014.0
20260904010236 91 257 1.0 2.0 0.00 0.00 0.00 51 1014.0
20260904005736 91 263 2.0 2.0 0.00 0.00 0.00 51 1014.0
20260904005235 92 257 1.0 2.0 0.00 0.00 0.00 50 1014.0
20260904004736 92 263 1.0 2.0 0.00 0.00 0.00 49 1014.0
20260904004235 93 250 2.0 2.0 0.00 0.00 0.00 48 1013.0
20260904003735 93 251 2.0 2.0 0.00 0.00 0.00 48 1013.0
20260904003236 93 258 2.0 2.0 0.00 0.00 0.00 46 1013.0
20260904002735 94 252 2.0 2.0 0.00 0.00 0.00 46 1014.0
20260904002235 94 252 2.0 2.0 0.00 0.00 0.00 45 1013.0
20260904001735 95 252 2.0 2.0 0.00 0.00 0.00 45 1013.0
20260904001236 95 255 1.0 3.0 0.00 0.00 0.00 44 1013.0
20260904000737 96 250 1.0 2.0 0.00 0.00 0.00 43 1013.0
20260904000236 96 261 1.0 2.0 0.00 0.00 0.00 43 1013.0
20260903235735 97 240 2.0 2.0 0.00 0.00 0.00 42 1013.0
20260903235235 97 245 3.0 3.0 0.00 0.00 0.00 42 1013.0
20260903234735 98 212 2.0 2.0 0.00 0.00 0.00 41 1014.0
20260903234235 98 253 2.0 2.0 0.00 0.00 0.00 42 1013.0
20260903233736 98 243 2.0 2.0 0.00 0.00 0.00 41 1014.0
20260903233236 98 232 2.0 3.0 0.00 0.00 0.00 40 1013.0
20260903232736 98 256 1.0 2.0 0.00 0.00 0.00 40 1013.0
20260903232235 98 224 2.0 3.0 0.00 0.00 0.00 40 1013.0
20260903231735 98 243 0.0 3.0 0.00 0.00 0.00 39 1013.0
20260903231235 98 234 0.0 3.0 0.00 0.00 0.00 38 1013.0
20260903230735 99 228 1.0 4.0 0.00 0.00 0.00 38 1013.0
20260903230235 99 230 2.0 3.0 0.00 0.00 0.00 38 1013.0
20260903225735 98 230 1.0 2.0 0.00 0.00 0.00 38 1013.0
20260903225235 100 249 2.0 2.0 0.00 0.00 0.00 38 1013.0
20260903224735 100 238 2.0 3.0 0.00 0.00 0.00 38 1013.0
20260903224235 100 241 3.0 4.0 0.00 0.00 0.00 38 1013.0
20260903223736 99 259 2.0 2.0 0.00 0.00 0.00 38 1013.0
20260903223236 98 244 1.0 3.0 0.00 0.00 0.00 39 1013.0
20260903222737 98 259 2.0 3.0 0.00 0.00 0.00 39 1013.0
20260903222235 98 232 2.0 3.0 0.00 0.00 0.00 39 1013.0
20260903221735 98 238 2.0 2.0 0.00 0.00 0.00 39 1013.0
20260903221235 98 248 2.0 3.0 0.00 0.00 0.00 39 1013.0
20260903220735 98 225 2.0 3.0 0.00 0.00 0.00 39 1013.0
20260903220235 98 208 3.0 3.0 0.00 0.00 0.00 39 1013.0
20260903215735 98 239 0.0 4.0 0.00 0.00 0.00 39 1013.0
20260903215235 98 253 2.0 5.0 0.00 0.00 0.00 39 1013.0
20260903214736 97 159 1.0 4.0 0.00 0.00 0.00 40 1013.0
20260903214235 98 127 5.0 5.0 0.00 0.00 0.00 39 1013.0
20260903213735 98 148 4.0 4.0 0.00 0.00 0.00 39 1013.0
20260903213237 98 210 1.0 3.0 0.00 0.00 0.00 39 1013.0
20260903212735 98 220 4.0 4.0 0.00 0.00 0.00 39 1014.0
20260903212235 98 193 1.0 2.0 0.00 0.00 0.00 39 1014.0
20260903211735 98 228 3.0 4.0 0.00 0.00 0.00 39 1014.0
20260903211237 98 269 2.0 5.0 0.00 0.00 0.00 39 1014.0
20260903210735 98 245 2.0 3.0 0.00 0.00 0.00 39 1014.0
20260903210235 98 213 2.0 4.0 0.00 0.00 0.00 39 1014.0
20260903205735 98 204 3.0 3.0 0.00 0.00 0.00 40 1014.0
20260903205235 98 267 1.0 4.0 0.00 0.00 0.00 39 1014.0
20260903204735 98 180 3.0 3.0 0.00 0.00 0.00 39 1014.0
20260903204235 98 227 2.0 3.0 0.00 0.00 0.00 39 1014.0
20260903203735 98 227 2.0 5.0 0.00 0.00 0.00 39 1014.0
20260903203236 96 135 1.0 5.0 0.00 0.00 0.00 39 1014.0
20260903202737 97 172 3.0 4.0 0.00 0.00 0.00 40 1014.0
20260903202235 97 220 2.0 4.0 0.00 0.00 0.00 41 1014.0
20260903201738 96 222 2.0 3.0 0.00 0.00 0.00 40 1014.0
20260903201235 96 217 2.0 5.0 0.00 0.00 0.00 40 1014.0